Find Starlink 30077

NORAD ID: 57460 Int'l Des: 2023-107 Owner: SPXS Country: US Constellation: starlink operational
LEOCIRCULAR

当前视图

正在加载3D地球...

关于 Starlink 30077

正在加载描述...

即将过境

Passes for default location (London). Set your location on the main map for personalized predictions.

高度历史

Loading altitude history...

两行轨道根数

1 57460U 23107D 26159.06886102 .00000304 00000-0 20595-4 0 9991
2 57460 43.0037 185.3361 0001489 274.2462 85.8220 15.27577364158979
Epoch: Jun 8, 2026 • Age: 17 hours

当前状态

高度 483.5 km
速度 7.63 km/s
星下点 -4.05°S, 163.69°W
发射日期 Jul 28, 2023
运行时间 2.8 years
类型 internet

技术详情

分类 Payload
质量 730.00 kg
干质量 700.00 kg
总质量 730.00 kg
长度 0.30 m
直径 4.10 m
跨度 29.00 m
形状 Box + pan
制造商 SPXS
平台类型 Starlink V2M
阶段状态 In Orbit
所有者/国家 SPXS/US

Most Searched